GEFSCGP_500_meanwind_222.txt.gz
Wind_Speed
47 49 48 46 46 46 45 45 45 44 45 46 46 45 44 43 43 42 41 40 39 37 37 37 36 35 35 34 34 34 33 33 33 32 32 32 33 33 33 34 34 34 34 35
48 48 46 47 47 47 47 46 46 46 46 47 47 47 45 44 43 42 41 41 40 39 38 38 37 36 35 35 35 35 34 34 33 32 33 33 33 33 33 34 34 35 35 35
47 46 46 47 47 48 48 46 45 45 46 47 48 48 46 45 44 44 42 41 41 39 38 38 38 37 36 36 35 35 35 34 34 34 33 34 34 34 34 34 34 35 35 36
48 47 47 48 48 48 47 45 45 45 46 47 48 48 45 43 44 43 42 41 40 39 38 38 37 37 36 36 36 36 36 35 35 35 35 34 34 34 34 34 34 35 36 36
47 47 47 48 47 47 47 45 45 45 46 48 48 49 47 44 43 42 41 41 40 39 38 38 37 37 37 36 36 36 36 36 36 36 36 35 35 35 35 35 35 36 36 37
43 45 46 46 46 46 46 46 45 46 46 49 47 49 48 44 41 40 40 40 40 39 38 38 38 37 37 36 36 36 36 36 36 36 37 36 36 36 36 36 36 36 37 38
41 42 44 46 47 47 47 46 46 47 48 49 46 48 48 43 41 40 39 39 39 39 39 38 38 37 37 36 36 37 37 37 37 37 37 37 37 37 37 37 38 38 39 40
39 40 41 44 46 46 47 46 46 47 48 47 46 47 46 43 41 39 39 39 39 39 39 38 37 37 37 37 37 37 37 37 38 38 38 38 39 39 39 39 39 40 41 42
39 39 40 41 43 44 46 46 45 45 47 47 47 47 45 43 41 40 39 39 39 39 38 38 37 37 37 37 37 37 37 38 38 39 39 40 40 40 40 40 41 42 42 43
37 38 39 40 42 44 44 45 44 45 46 47 47 46 44 41 40 40 39 38 38 39 38 38 38 37 37 37 37 37 37 38 38 39 40 40 41 41 41 41 42 42 43 44
35 37 38 39 41 41 42 44 45 45 46 46 46 45 42 40 39 38 38 37 37 38 38 38 38 37 37 37 37 37 37 38 38 38 39 39 40 41 42 41 41 42 43 44
33 35 37 38 38 40 41 41 42 44 45 45 45 43 40 39 38 37 37 37 37 37 37 37 36 36 37 37 36 36 37 37 38 38 39 39 40 40 41 41 42 42 43 43
32 34 35 37 38 40 41 40 41 42 43 44 44 43 40 38 37 36 35 35 36 37 37 36 36 36 36 36 36 36 37 37 38 38 39 39 39 39 40 41 42 42 43 44
32 32 33 35 36 37 39 40 40 41 42 43 43 42 40 38 37 36 36 36 35 35 36 36 36 37 37 37 36 36 37 38 38 39 39 40 39 40 39 40 42 43 44 44
33 33 32 33 34 35 37 39 40 41 42 43 41 40 39 38 37 36 36 35 35 34 34 35 35 36 37 37 37 36 37 38 38 39 40 40 40 40 41 41 43 44 44 44
33 33 33 33 34 35 37 37 37 39 40 41 42 41 39 39 38 37 36 36 36 35 35 35 36 36 37 37 37 37 37 38 39 40 40 41 41 41 42 42 43 43 44 45
33 33 33 33 32 34 35 35 35 37 38 39 40 39 38 39 38 37 36 36 35 36 35 35 35 36 37 38 38 38 39 39 40 40 40 41 41 42 42 42 42 43 44 44
31 33 31 31 31 33 33 33 35 35 36 37 37 37 37 37 37 37 36 36 35 36 36 35 35 35 36 36 37 38 39 40 40 41 41 42 42 42 42 42 42 43 43 43
27 28 30 29 29 31 31 32 32 34 34 35 36 37 37 37 38 37 37 37 37 37 36 36 35 35 36 36 37 38 38 38 39 40 41 41 41 41 41 42 41 41 42 42
25 27 28 30 29 29 29 29 30 32 34 35 35 36 36 37 38 37 37 37 37 37 36 36 37 37 37 37 37 37 37 38 38 39 40 40 39 40 40 40 40 40 40 41
21 25 26 28 29 28 27 28 28 30 31 32 33 34 35 35 36 36 37 37 37 36 36 36 36 36 37 37 37 37 37 38 38 38 39 38 38 38 38 38 38 39 39 39
17 21 24 26 27 27 26 26 27 27 27 30 31 32 33 33 34 35 35 35 35 35 35 35 35 35 35 35 36 36 36 36 36 37 37 37 37 37 37 37 37 38 39 39
15 18 20 23 24 23 24 25 25 26 27 27 29 31 32 32 32 32 32 33 32 33 33 33 33 33 33 34 34 34 35 35 35 35 35 35 36 36 36 36 37 38 38 39
14 15 18 19 20 21 23 24 25 26 26 27 28 29 30 30 30 31 32 33 33 33 33 33 33 33 33 33 32 33 33 33 33 34 34 35 36 36 36 36 37 38 38 39
12 14 16 18 19 20 22 22 23 23 24 24 25 26 27 29 30 30 31 31 32 32 32 33 33 33 33 33 33 32 32 33 33 34 34 34 35 35 36 37 37 38 38 38
11 13 16 16 17 19 20 21 21 22 23 24 24 26 26 27 28 28 29 30 31 31 32 32 32 32 32 32 32 32 33 33 34 34 34 34 35 35 36 36 37 37 37 38

GEFSCGP_500_meanwind_228.txt.gz
Wind_Speed
49 50 50 50 50 50 51 50 49 48 47 48 48 47 46 46 46 45 45 44 43 42 41 41 40 40 39 38 37 36 36 36 35 35 35 35 34 34 34 34 34 34 34 34
48 49 47 49 50 51 51 51 50 49 48 49 49 49 47 47 46 46 45 44 44 43 43 42 41 40 40 39 38 38 37 37 36 36 36 36 35 35 35 35 35 35 35 35
47 47 47 49 50 51 51 51 50 50 50 50 51 51 49 47 47 46 45 45 44 44 43 43 42 41 41 40 39 39 39 38 38 38 37 37 36 36 36 36 36 35 36 36
44 46 47 48 50 50 50 50 50 50 51 51 52 53 50 48 47 46 44 45 44 44 44 43 43 42 41 40 40 40 40 40 39 39 38 37 37 37 37 36 36 36 36 36
41 44 47 48 48 48 48 48 49 50 51 52 52 53 50 48 47 45 44 44 44 43 43 43 43 42 42 41 41 41 41 40 40 39 38 38 38 38 37 37 37 37 37 37
39 41 44 46 46 46 47 47 48 50 51 53 51 52 51 48 46 45 45 44 44 43 43 43 43 43 42 41 41 41 40 40 39 38 38 38 39 39 38 38 38 38 38 38
38 39 41 42 44 45 45 46 46 48 52 53 50 52 50 46 45 45 44 44 43 43 43 43 43 42 42 41 41 40 40 40 39 39 39 39 39 39 39 39 39 39 39 39
36 37 38 40 42 43 43 45 46 47 50 51 51 52 49 46 45 44 44 43 43 43 43 42 43 42 42 41 41 41 41 40 40 40 39 39 39 39 40 40 40 40 40 40
34 36 38 39 40 42 43 44 44 46 48 49 51 51 49 46 44 43 43 43 43 42 42 42 42 42 42 42 42 42 42 42 41 41 40 40 40 40 40 40 41 41 41 42
30 33 36 38 40 41 42 42 43 45 46 47 49 49 46 44 42 42 41 41 42 42 42 42 42 42 42 42 42 42 42 42 42 41 41 40 40 41 41 42 42 42 43 43
30 31 34 36 38 39 41 42 42 43 45 45 47 46 44 43 41 40 40 40 40 40 41 42 43 42 42 42 42 42 42 42 42 41 41 41 41 42 42 42 43 43 43 43
28 30 32 33 35 36 38 40 40 40 41 41 43 44 42 41 40 39 39 39 39 39 40 41 42 42 41 41 41 42 41 41 41 41 41 41 41 42 42 42 42 42 43 43
25 27 30 31 33 35 37 39 40 40 41 41 41 41 40 40 39 38 38 38 39 38 38 39 40 41 41 41 41 41 41 41 41 41 41 41 41 41 41 42 42 42 43 43
26 27 28 29 30 34 36 38 39 39 41 41 41 40 38 38 38 37 37 38 38 38 38 38 39 39 39 40 40 40 40 41 41 41 41 41 41 41 41 41 42 42 42 42
26 27 28 28 28 30 34 36 37 38 38 39 39 39 38 38 37 38 37 37 37 37 38 38 38 38 38 38 39 39 40 40 40 40 41 41 41 41 41 41 41 42 42 42
27 27 28 27 28 29 32 34 36 37 38 38 39 38 37 37 37 37 37 37 37 36 37 37 38 38 38 38 38 38 38 39 39 39 40 40 40 40 41 41 40 40 41 41
26 27 27 28 28 29 31 32 34 35 35 36 37 36 35 36 35 36 36 36 37 36 36 37 37 39 39 39 38 38 38 38 38 38 39 39 39 39 39 39 40 40 40 40
25 26 27 27 27 27 27 29 32 35 34 35 35 35 35 35 35 35 35 35 36 36 36 36 37 37 38 39 39 39 39 39 39 39 39 39 39 39 38 38 38 38 39 39
22 25 26 27 28 26 25 26 29 32 34 33 34 34 35 35 35 34 34 35 35 36 36 36 36 37 37 37 37 38 38 38 39 39 39 39 38 38 38 38 38 39 39 39
18 22 24 26 27 27 25 25 27 28 30 32 33 33 33 34 34 33 32 33 34 34 35 36 36 36 36 37 37 37 37 37 37 38 38 38 39 39 39 39 39 39 39 40
16 19 22 24 25 26 26 25 26 27 28 29 31 33 32 33 33 32 32 32 33 34 35 35 35 35 36 36 37 37 36 36 37 37 38 38 39 39 39 39 39 39 39 39
15 16 18 21 23 24 25 25 26 26 27 29 30 32 32 31 32 32 33 33 34 34 34 34 34 34 35 35 36 36 37 37 37 37 38 37 38 37 37 38 38 38 38 38
13 14 16 18 19 21 23 24 25 26 26 27 28 30 31 31 31 31 32 33 33 33 33 34 34 34 35 36 36 36 36 36 36 37 37 36 35 35 35 35 36 37 37 37
13 14 15 16 17 18 19 21 22 23 24 25 27 28 28 29 30 30 31 31 31 32 32 33 33 34 34 35 36 36 36 35 35 35 34 33 33 33 34 34 35 36 36 36
12 13 14 15 16 17 18 19 19 20 21 22 23 25 26 26 27 29 30 30 31 31 32 32 33 33 33 33 34 34 34 34 33 32 32 32 32 32 33 33 34 35 36 36
12 13 13 13 14 15 17 19 19 19 21 22 22 23 25 26 26 27 28 28 29 30 31 31 31 31 31 32 32 32 32 32 32 31 31 31 31 31 32 32 33 34 35 35

GEFSCGP_500_meanwind_234.txt.gz
Wind_Speed
43 46 48 47 48 50 50 51 51 51 51 52 51 50 49 49 48 47 47 46 46 45 45 45 44 44 43 43 41 40 39 38 37 36 36 35 35 34 34 34 33 33 33 34
41 43 44 46 47 48 50 51 51 52 52 53 52 52 50 50 48 47 47 46 46 46 46 45 45 44 44 43 42 41 40 39 38 37 37 36 36 35 35 35 35 35 35 35
39 41 42 44 46 47 48 50 50 50 51 53 53 53 52 51 50 49 48 47 47 47 47 46 46 45 44 43 42 42 41 40 39 38 38 37 37 36 36 35 36 36 36 36
35 38 40 42 44 45 46 48 49 50 51 52 53 54 52 51 51 50 49 48 48 48 47 47 46 45 44 44 43 43 42 41 41 40 39 38 38 37 37 36 36 36 36 37
33 35 37 39 40 42 42 44 46 48 50 52 53 54 53 51 51 51 50 49 48 48 48 47 47 46 46 45 44 43 43 42 41 40 40 39 39 38 38 38 37 37 37 38
32 32 35 37 39 40 41 41 42 45 47 51 51 53 54 52 50 50 50 49 48 48 48 47 47 47 46 46 44 44 43 43 42 41 41 40 40 39 39 38 38 38 38 38
29 32 33 34 37 40 40 41 40 42 45 48 48 50 51 50 49 49 49 49 48 47 47 47 47 46 46 46 45 44 44 43 42 42 41 41 40 40 39 39 39 39 39 39
25 28 30 32 35 37 38 39 40 41 43 44 45 48 48 47 47 48 49 49 49 48 47 47 46 46 46 46 45 45 44 43 43 42 42 41 41 41 40 40 39 39 39 40
23 25 28 30 33 34 34 36 37 38 40 41 43 45 45 46 46 46 47 47 48 47 47 46 46 46 46 46 45 45 44 43 43 43 42 42 41 41 40 40 40 40 40 40
22 23 26 29 31 34 34 33 34 34 36 38 40 42 43 42 42 44 45 45 46 47 47 47 46 46 46 46 45 45 44 44 43 43 42 42 42 41 41 40 40 41 40 40
21 22 24 27 30 32 34 33 34 33 34 35 37 39 39 40 40 41 42 43 44 45 46 46 46 45 45 45 45 44 44 44 44 43 42 42 42 41 41 41 41 41 40 41
20 21 22 25 28 30 33 32 33 34 33 33 33 35 35 36 37 39 40 40 41 42 43 44 45 45 45 44 44 44 44 44 43 43 43 43 42 41 41 41 41 41 41 40
18 19 20 23 26 29 31 31 32 33 34 33 33 34 32 33 35 36 38 39 40 40 40 41 42 43 43 44 44 43 43 43 43 43 43 43 42 42 42 41 41 41 40 40
19 20 21 22 23 26 28 29 30 31 32 33 33 33 32 32 33 35 36 37 38 39 40 40 40 40 41 42 42 42 42 42 42 42 42 41 41 41 41 40 40 40 40 40
19 21 22 21 22 24 26 28 29 30 29 30 30 31 31 32 32 33 34 36 36 37 38 39 39 39 40 41 41 41 41 41 41 41 41 40 40 40 40 40 40 40 40 41
18 20 22 22 22 24 25 27 29 31 31 30 29 29 30 32 32 33 34 35 35 36 36 37 38 38 38 39 39 40 40 40 40 40 40 40 39 39 39 39 39 40 40 40
17 19 21 21 21 23 26 27 28 29 30 29 28 27 29 31 32 33 33 34 35 35 36 36 37 37 38 38 38 39 39 39 40 39 39 39 39 39 39 39 39 39 39 39
16 18 20 21 21 21 23 25 26 27 28 29 28 28 27 29 30 31 33 34 34 35 35 35 36 37 38 38 38 38 38 39 39 39 39 39 39 39 39 38 38 38 38 38
14 16 18 20 22 21 21 22 23 24 25 27 27 27 27 27 28 29 31 33 34 35 35 35 36 36 37 37 38 38 37 38 38 38 38 37 38 38 38 38 38 38 38 38
14 15 16 18 20 21 21 21 22 23 24 25 26 26 26 26 26 27 30 32 33 34 35 35 35 36 36 36 37 37 37 36 36 37 37 37 37 37 37 38 38 38 38 38
14 15 16 17 18 19 21 21 22 23 23 24 25 25 25 25 26 26 28 30 31 32 33 34 35 35 35 36 36 36 36 36 36 36 37 37 36 36 36 37 37 37 38 38
13 14 14 15 16 17 19 20 21 21 21 22 23 24 24 24 24 25 26 28 30 31 32 33 33 33 33 34 35 35 35 35 36 36 36 36 36 36 36 36 36 37 37 37
12 13 13 14 15 16 17 19 20 21 21 22 22 23 23 23 23 23 24 26 28 29 31 31 32 32 33 32 33 34 34 34 34 35 35 36 36 35 35 35 35 36 36 36
13 13 14 14 14 15 16 17 19 20 21 21 22 23 24 24 24 24 24 25 26 28 29 30 31 32 32 32 33 33 33 33 33 34 34 35 35 35 35 35 35 35 35 35
12 12 13 14 15 16 16 17 18 18 20 21 21 22 23 23 23 23 24 24 25 26 27 29 30 31 31 32 32 32 32 32 32 32 33 33 33 33 33 33 33 33 34 34
11 11 12 13 14 15 15 16 16 17 18 19 19 20 22 23 22 23 24 25 25 26 27 28 29 30 30 30 30 31 31 31 31 32 32 32 31 31 31 31 32 32 33 34

GEFSCGP_500_meanwind_240.txt.gz
Wind_Speed
35 39 42 42 43 44 46 48 49 49 49 50 50 50 51 51 51 51 51 51 51 50 49 48 47 47 46 45 44 44 43 42 42 41 40 38 38 37 36 36 35 34 33 33
33 35 37 40 41 43 44 45 47 48 48 49 49 49 50 50 51 50 51 51 51 50 49 48 48 47 46 46 45 44 43 42 42 41 41 40 39 38 37 36 36 35 35 34
30 31 34 37 39 42 44 44 44 46 47 48 48 49 49 49 50 50 50 50 51 51 50 49 48 48 47 47 46 45 44 43 42 42 41 41 40 39 38 37 37 36 36 36
26 29 31 34 36 38 40 42 43 43 45 46 48 50 48 49 50 50 50 50 50 50 50 50 50 49 49 48 47 46 45 44 43 42 41 41 40 40 40 39 38 37 37 36
24 28 30 32 35 36 37 38 40 41 42 45 47 49 49 49 49 50 50 49 49 49 49 49 49 50 49 49 48 47 46 45 44 43 42 41 41 40 40 39 39 38 37 37
23 25 27 30 32 34 35 36 36 38 39 43 44 46 48 48 48 48 48 49 49 49 49 49 49 50 49 49 49 49 48 46 45 44 43 42 41 40 40 39 39 39 38 37
20 22 23 27 30 32 33 34 34 35 37 40 40 43 46 46 46 46 47 48 48 48 48 48 49 49 49 49 49 49 48 47 46 45 44 43 42 41 40 40 39 39 38 38
18 21 22 25 28 31 33 33 33 34 36 37 37 39 41 43 44 44 45 46 47 48 48 48 48 49 49 50 50 49 48 47 46 45 44 44 43 42 41 40 40 39 39 38
17 20 21 24 26 29 31 32 31 32 33 34 35 36 39 39 41 42 44 45 46 47 48 48 48 48 49 49 49 48 48 47 47 46 45 45 44 43 42 41 41 40 39 38
16 18 19 21 24 27 28 29 29 30 32 34 35 35 36 37 39 40 41 43 44 46 47 47 48 48 48 48 48 48 48 48 47 47 46 45 45 44 43 41 41 40 40 40
16 16 18 20 22 23 26 29 29 29 30 31 34 35 35 36 36 36 37 39 41 43 45 45 46 47 47 47 48 48 49 48 47 46 46 45 44 43 42 42 41 41 40 40
16 17 17 19 20 22 24 27 28 28 28 29 31 32 34 35 34 34 34 36 38 40 42 43 44 45 46 46 47 47 47 47 47 46 45 45 45 44 43 42 41 41 41 41
17 18 18 19 21 22 24 26 27 28 28 28 29 30 30 32 32 33 33 34 36 38 39 41 42 43 44 45 45 46 46 45 46 45 45 45 44 44 43 42 42 42 41 41
16 18 19 19 19 21 23 25 26 26 28 29 29 28 28 30 31 32 33 34 35 36 37 39 41 42 42 43 43 44 45 44 44 44 44 44 44 43 43 42 42 42 42 42
16 17 18 19 19 19 21 23 24 26 27 28 27 29 29 29 30 31 32 33 35 35 36 37 39 41 41 41 41 41 43 43 43 43 43 43 43 43 43 42 41 41 41 41
17 17 18 19 20 20 21 22 24 26 28 29 29 28 28 29 29 30 31 32 33 35 35 36 38 39 40 40 40 40 40 41 42 42 42 42 42 42 41 41 40 39 39 39
16 17 17 18 20 21 22 22 23 26 28 29 30 28 28 29 29 30 31 32 32 34 35 36 37 38 39 40 40 39 39 39 40 40 41 41 41 41 40 40 40 39 38 38
16 17 17 18 19 21 22 23 24 25 26 29 29 29 29 29 29 30 31 31 32 33 34 35 37 37 38 38 39 39 38 38 38 38 39 39 40 40 40 40 39 38 38 37
15 16 18 19 20 20 21 22 24 25 26 27 27 27 28 28 28 29 30 31 32 32 32 33 35 37 37 38 38 38 38 37 37 37 37 38 38 39 39 39 38 38 37 37
15 16 16 16 18 19 20 21 23 25 26 27 27 27 26 27 27 27 29 30 31 32 33 34 34 36 37 37 38 38 37 37 37 37 37 37 37 38 38 37 37 36 36 36
16 16 16 16 17 18 19 20 21 23 24 26 26 26 26 25 26 26 27 28 29 29 31 32 33 34 35 37 37 38 37 37 37 37 37 37 37 37 37 37 36 35 35 36
16 16 17 17 17 17 19 20 21 22 23 24 24 25 25 25 25 25 25 25 26 27 28 29 30 31 32 34 35 36 36 36 36 36 36 36 36 36 36 36 36 35 35 35
16 17 17 17 18 18 19 20 21 21 22 23 24 24 24 24 24 24 24 25 25 26 27 27 27 28 29 31 32 33 34 34 35 35 35 36 36 36 36 36 36 36 35 35
17 17 18 18 17 18 18 19 20 20 21 21 22 23 23 23 23 23 24 25 25 25 25 26 26 27 28 29 31 32 32 33 34 34 35 35 35 35 35 36 36 36 35 35
17 18 18 18 18 18 18 19 18 19 19 20 21 22 22 23 23 23 23 23 23 23 24 25 26 26 27 28 29 31 32 32 33 33 33 34 35 35 35 35 35 35 35 36
17 18 18 18 18 18 18 19 19 18 18 18 19 20 21 21 22 22 23 23 23 23 23 24 26 26 27 27 28 30 30 31 32 32 32 32 33 33 34 34 34 35 35 35

GEFSCGP_500_meanwind_246.txt.gz
Wind_Speed
22 25 29 31 32 35 37 42 43 42 42 44 47 48 48 49 49 49 49 49 48 48 48 48 47 47 47 46 46 45 45 44 44 44 43 42 40 39 38 37 37 36 35 35
19 22 24 28 31 33 35 39 41 41 42 44 44 46 47 48 49 49 49 48 48 48 48 47 47 47 47 47 46 46 46 45 45 44 44 43 41 40 40 39 38 37 37 36
17 18 21 25 29 31 33 35 37 37 39 43 44 46 46 47 48 48 48 47 47 47 47 48 47 47 47 47 47 46 46 46 45 44 44 43 42 41 40 39 39 38 38 37
14 17 20 22 25 28 30 31 33 34 36 39 42 45 45 46 47 48 47 46 46 46 47 47 47 47 47 47 46 46 46 46 46 45 44 42 42 41 41 40 40 40 39 39
12 15 19 21 23 25 27 28 29 31 33 37 39 41 43 44 45 46 46 45 45 45 46 46 47 47 47 47 47 47 47 46 46 45 44 43 42 42 42 42 41 40 40 40
11 13 16 19 20 22 25 27 27 29 31 34 36 39 41 42 42 42 43 44 44 44 44 45 46 46 46 46 46 47 47 47 46 46 45 44 43 43 43 42 41 42 41 41
9 11 13 16 18 19 22 25 25 26 30 32 33 36 39 39 40 41 42 42 43 43 44 45 45 45 45 45 45 46 46 47 47 47 46 45 45 44 43 43 42 42 42 41
10 9 11 14 16 18 20 23 25 25 28 30 32 32 35 36 37 38 39 40 41 42 44 45 45 45 45 45 44 45 45 45 46 46 46 46 46 45 44 43 43 42 41 41
11 11 11 12 14 17 19 21 23 24 26 28 29 29 31 33 35 36 37 38 41 42 43 44 45 45 45 45 44 44 44 45 45 46 46 46 46 45 45 45 44 43 42 41
12 12 12 13 14 16 19 20 21 23 24 26 27 28 30 30 32 34 36 37 39 41 42 43 44 45 46 45 45 44 44 44 44 45 46 46 46 45 45 45 44 42 42 42
12 12 13 14 15 17 18 20 21 22 23 25 26 26 28 28 29 31 33 35 37 38 41 42 43 44 45 46 45 45 45 45 45 44 45 45 46 46 45 45 44 43 43 43
11 12 13 14 16 18 19 20 21 22 22 24 24 25 25 26 27 28 30 33 35 36 38 40 42 43 44 45 45 45 45 45 45 45 44 44 45 45 45 44 44 44 43 42
11 13 14 14 15 17 19 20 21 21 22 22 23 23 24 25 26 27 29 31 33 34 36 37 39 41 43 45 45 45 45 45 45 45 44 43 43 43 44 44 45 44 43 43
12 13 14 15 15 16 17 20 22 22 22 22 22 23 22 23 25 26 27 29 31 32 34 36 37 38 41 44 45 45 46 45 45 45 44 43 43 43 44 45 44 44 43 43
13 13 14 15 16 17 17 19 21 23 24 23 22 22 22 23 25 26 26 27 28 30 32 34 35 37 38 41 43 44 45 45 45 45 44 44 43 43 43 44 44 44 43 42
14 14 13 14 15 16 17 18 20 22 24 24 23 22 22 23 25 26 27 27 27 29 31 33 34 35 36 38 40 42 43 44 44 45 44 44 43 43 43 43 43 43 43 42
13 14 14 14 15 16 16 17 19 21 23 24 24 25 24 24 24 25 26 27 29 29 30 32 33 35 36 37 38 40 41 42 43 43 43 43 43 42 42 42 43 43 42 41
13 14 14 15 15 16 17 17 18 20 21 22 23 24 25 24 24 26 27 27 27 28 30 31 31 33 34 36 37 38 39 40 41 42 43 43 42 42 42 42 42 42 41 41
14 15 15 15 15 15 16 17 18 19 20 21 22 23 24 25 25 26 28 28 28 28 29 30 31 32 33 34 35 37 37 38 39 39 40 41 41 41 41 40 41 41 40 40
15 16 16 16 16 15 15 16 17 19 20 21 22 23 23 24 24 25 27 28 28 28 28 29 30 31 32 33 35 35 37 38 38 39 39 39 39 39 39 39 39 39 39 39
14 15 15 16 17 16 16 17 17 18 19 21 21 22 22 22 22 23 25 27 28 28 28 28 29 30 31 33 34 34 35 37 38 38 38 38 38 38 39 39 38 38 38 38
13 14 15 16 17 17 17 17 18 19 19 20 20 21 21 21 22 22 23 25 27 27 27 27 28 29 31 33 33 33 34 35 36 37 37 37 37 38 38 38 38 38 37 37
14 14 15 16 17 17 17 18 18 19 19 19 20 21 21 21 21 22 22 23 24 26 26 26 27 28 29 31 33 33 33 33 34 35 36 36 36 36 36 36 37 37 37 37
15 15 16 16 17 18 17 18 18 19 19 20 20 20 21 21 21 21 22 23 23 24 25 26 26 26 27 28 29 31 32 33 33 33 34 35 35 35 35 35 36 36 36 36
16 16 16 16 17 18 18 18 18 18 18 19 20 20 20 20 20 20 19 20 21 22 24 24 24 26 26 26 26 28 30 31 31 32 32 33 33 34 34 34 35 35 35 35
18 17 17 16 17 17 18 18 18 18 18 19 19 20 20 21 20 20 19 19 20 22 23 23 23 24 25 26 26 26 28 30 30 30 31 31 32 33 33 33 33 34 34 34

GEFSCGP_500_meanwind_252.txt.gz
Wind_Speed
18 19 21 23 24 25 27 28 30 31 32 35 39 40 41 43 44 46 47 47 47 48 47 48 48 48 47 46 46 45 45 44 44 44 44 42 41 41 40 40 40 39 38 37
17 18 18 21 23 24 25 27 29 30 32 34 37 39 40 42 42 44 46 47 47 47 47 47 47 47 46 45 46 45 45 45 45 44 44 43 43 43 41 41 40 40 39 38
16 16 18 19 21 22 24 25 27 29 32 34 36 38 39 40 41 43 45 46 47 47 47 47 46 46 46 46 45 45 45 45 45 45 45 45 45 44 42 41 40 40 40 39
14 15 16 17 19 21 22 24 25 27 31 34 36 38 38 39 40 42 43 44 45 46 46 46 46 46 45 46 46 46 47 46 45 45 45 45 45 44 44 43 41 40 40 39
13 13 14 16 17 19 20 22 24 25 28 32 34 36 38 38 39 40 42 43 45 45 46 45 45 46 46 46 47 47 47 48 47 46 45 45 45 45 44 45 44 42 39 38
13 12 13 14 15 17 18 20 21 23 25 30 31 34 36 36 36 38 39 41 43 44 44 44 45 45 46 46 47 47 46 47 47 47 47 45 45 45 45 44 44 42 41 39
13 12 12 13 14 15 16 18 18 21 24 27 28 31 33 33 33 36 38 39 41 43 44 44 45 45 46 46 46 46 46 46 47 47 47 46 46 45 45 44 44 43 42 42
13 12 12 13 14 14 16 17 18 20 22 24 26 28 29 31 32 33 35 37 39 40 42 43 44 44 45 46 46 46 46 46 46 46 46 46 45 45 44 44 44 43 43 43
12 12 12 13 13 14 15 17 18 19 21 22 23 24 27 28 30 32 34 35 36 38 40 41 42 43 44 45 45 46 45 45 45 45 45 45 45 45 44 43 43 44 45 44
13 13 12 12 13 13 15 17 18 20 20 22 21 22 23 23 25 28 30 33 34 35 38 39 40 41 42 44 44 45 45 45 44 44 45 45 44 45 45 44 44 44 44 44
13 14 14 14 14 14 15 16 18 19 21 22 22 22 22 22 23 26 29 31 33 34 35 37 38 39 40 42 42 43 44 44 43 44 44 45 46 46 45 45 44 44 45 44
14 15 15 14 15 15 16 17 18 20 21 22 22 22 22 21 22 25 28 29 31 32 34 35 36 38 39 41 41 42 43 44 44 44 45 45 45 46 45 45 44 44 44 44
14 16 16 16 16 16 16 17 19 20 21 22 23 22 23 22 22 24 26 28 30 31 33 34 36 37 38 40 41 42 42 43 43 44 45 45 45 44 44 44 44 44 44 44
15 16 17 17 17 16 17 18 20 21 23 24 23 23 23 23 23 24 25 27 28 30 31 32 34 36 38 39 40 41 42 43 43 43 44 45 45 45 44 43 43 43 43 43
16 16 16 17 18 17 17 18 19 20 22 23 23 23 23 23 23 23 25 26 28 29 30 30 31 34 36 38 39 41 42 43 43 43 44 45 45 46 45 45 44 44 43 43
16 17 17 17 18 18 18 19 20 19 21 22 22 22 23 23 23 23 24 25 26 28 29 30 30 31 34 36 37 39 40 41 42 42 43 44 45 46 46 45 45 44 44 43
17 17 18 18 19 19 18 18 20 20 20 21 21 21 21 22 23 23 23 24 25 27 28 29 29 30 31 33 36 37 38 39 40 41 42 42 43 44 45 45 45 44 43 43
17 17 18 18 19 20 20 19 20 20 21 22 22 22 21 22 23 24 24 24 25 27 28 28 29 30 31 32 33 34 35 37 38 39 40 40 41 42 42 42 42 42 42 42
18 18 18 19 19 19 20 20 20 20 21 22 22 22 22 22 23 24 24 24 25 26 28 28 29 30 31 32 33 33 34 35 36 38 39 39 39 40 40 41 41 41 41 42
18 18 18 19 19 18 19 20 21 21 21 22 24 24 23 23 23 23 24 24 24 26 27 28 29 30 31 32 33 34 34 35 35 36 37 38 39 39 40 40 40 41 41 41
18 17 18 18 19 19 19 19 20 21 21 21 23 23 23 23 23 23 24 24 24 25 26 27 28 30 31 32 33 34 34 35 36 36 36 36 37 38 38 39 40 40 41 41
19 19 18 19 20 20 21 21 21 21 21 22 22 23 22 22 22 22 22 23 24 25 25 26 27 29 30 31 32 32 33 33 34 35 35 35 35 36 37 38 38 39 39 39
19 20 20 20 20 20 21 22 22 23 23 23 23 23 23 23 23 23 23 23 24 24 25 25 26 28 29 30 30 31 32 32 32 33 34 34 34 34 35 36 36 37 37 37
20 20 20 21 20 21 21 21 22 23 24 24 23 24 24 24 24 24 24 24 25 26 25 25 26 27 28 29 29 30 30 30 31 31 32 33 33 34 34 35 36 37 37 36
20 20 20 20 21 22 22 22 23 23 24 24 24 24 24 24 25 25 24 24 25 26 25 25 25 26 26 27 28 28 28 29 30 30 30 31 32 33 33 33 34 35 36 36
21 21 21 20 21 22 22 23 23 24 24 24 25 25 25 24 25 25 25 25 25 25 25 25 25 25 26 26 27 27 27 27 28 28 28 29 29 30 31 31 32 32 33 33